This demonstration page uses our WeatherBlox Daily Observations layout. Learn more.

Left ArrowRight Arrow

39.92423, -83.80882

Hourly Observations for September 16, 2015

Temp ( °F °C ) Dew Point ( °F °C ) Humidity (%) Winds ( mph kmh ) Pressure ( in mb ) Visibility ( mi km ) Precip ( " mm )
12:56 am 00:56 Clear 62 16.6 53 11.6 73 73 SE 6 9 30.32 1027 10 16.0934 0 0
1:56 am 01:56 Clear 56 13.3 51 10.5 83 83 SE 5 7 30.32 1027 10 16.0934 0 0
2:56 am 02:56 Clear 57 13.8 52 11.1 84 84 SE 6 9 30.32 1027 10 16.0934 0 0
3:56 am 03:56 Clear 54 12.2 51 10.5 89 89 SE 5 7 30.32 1027 10 16.0934 0 0
4:56 am 04:56 Clear 52 11.1 50 10 93 93 E 3 6 30.33 1027 10 16.0934 0 0
5:56 am 05:56 Clear 52 11.1 51 10.5 96 96 ENE 3 6 30.34 1027 10 16.0934 0 0
6:56 am 06:56 Clear 50 10 49 9.4 96 96 E 3 6 30.34 1028 10 16.0934 0 0
7:56 am 07:56 Sunny 51 10.5 50 10 97 97 E 3 6 30.35 1028 10 16.0934 0 0
8:56 am 08:56 Sunny 62 16.6 57 13.8 84 84 SE 3 6 30.35 1028 10 16.0934 0 0
9:56 am 09:56 Sunny 69 20.5 58 14.4 68 68 S 3 6 30.36 1028 10 16.0934 0 0
10:56 am 10:56 Sunny 74 23.3 56 13.3 54 54 S 5 7 30.36 1028 10 16.0934 0 0
11:56 am 11:56 Sunny 78 25.5 57 13.8 48 48 VRB 5 7 30.35 1028 10 16.0934 0 0
12:56 pm 12:56 Sunny 79 26.1 56 13.3 45 45 SW 8 13 30.32 1027 10 16.0934 0 0
1:56 pm 13:56 Sunny 81 27.2 56 13.3 42 42 WSW 7 11 30.3 1026 10 16.0934 0 0
2:56 pm 14:56 Sunny 82 27.7 56 13.3 41 41 VRB 6 9 30.28 1025 10 16.0934 0 0
3:56 pm 15:56 Sunny 83 28.3 56 13.3 40 40 SW 8 13 30.26 1025 10 16.0934 0 0
4:56 pm 16:56 Sunny 83 28.3 55 12.7 38 38 VRB 3 6 30.24 1024 10 16.0934 0 0
5:56 pm 17:56 Sunny 82 27.7 54 12.2 38 38 SSW 5 7 30.23 1024 10 16.0934 0 0
6:56 pm 18:56 Sunny 79 26.1 57 13.8 47 47 SW 6 9 30.22 1024 10 16.0934 0 0
7:56 pm 19:56 Clear 69 20.5 58 14.4 68 68 SW 6 9 30.22 1023 10 16.0934 0 0
8:56 pm 20:56 Clear 65 18.3 56 13.3 73 73 SSW 5 7 30.22 1024 10 16.0934 0 0
9:56 pm 21:56 Clear 59 15 55 12.7 86 86 ESE 3 6 30.23 1024 10 16.0934 0 0
10:56 pm 22:56 Clear 58 14.4 55 12.7 90 90 Calm 30.22 1023 10 16.0934 0 0
11:56 pm 23:56 Clear 57 13.8 55 12.7 93 93 Calm 30.22 1023 10 16.0934 0 0

Powered by AerisWeather